Find Starlink 33806

NORAD ID: 63723 Int'l Des: 2025-087 Owner: SPXS Country: US Constellation: starlink operational
LEOCIRCULAR

实时位置

正在加载3D地球...

关于 Starlink 33806

正在加载描述...

即将过境

Passes for default location (London). Set your location on the main map for personalized predictions.

高度历史

Loading altitude history...

两行轨道根数

1 63723U 25087AC 26105.09152663 .00008023 00000-0 28269-3 0 9992
2 63723 53.1604 50.4124 0001171 86.0545 274.0589 15.30201966 54777
Epoch: Apr 15, 2026 • Age: 8 hours

当前状态

高度 479.3 km
速度 7.63 km/s
星下点 45.50°N, 99.96°E
发射日期 Apr 28, 2025
运行时间 0.9 years
类型 internet

技术详情

分类 Payload
质量 575.00 kg
干质量 530.00 kg
总质量 575.00 kg
长度 0.30 m
直径 4.10 m
跨度 29.00 m
形状 Box + pan
制造商 SPXS
平台类型 Starlink V2MO
阶段状态 In Orbit
所有者/国家 SPXS/US

Most Searched